Siemreap, Cambodia

4:55 AM +07 on May 27, 2017 (GMT +0700)
Siem Reap

Weather History for VDSR - November, 2014

Change the Weather History Date:

Thursday, November 20, 2014

  Actual Average Record
Temperature  
Mean Temperature 79 °F -  
Max Temperature 87 °F - - ()
Min Temperature 71 °F - - ()
Cooling Degree Days 14    
Growing Degree Days 29 (Base 50)    
Moisture  
Dew Point 71 °F    
Average Humidity 71    
Maximum Humidity 89    
Minimum Humidity 52    
Precipitation  
Precipitation 0.00 in - - ()
Sea Level Pressure  
Sea Level Pressure 29.85 in    
Wind  
Wind Speed 4 mph ()    
Max Wind Speed 7 mph    
Max Gust Speed -    
Visibility 5.8 miles    
Events      
T = Trace of Precipitation, MM = Missing Value Source: Averaged Metar Reports

Daily Weather History Graph

Daily Weather History Graph

Search for Another Location

Airport or City:

Trip Planner

Search our weather history database for the weather conditions in past years. The results will help you decide how hot, cold, wet, or windy it might be!

Date:

Astronomy

Nov. 20, 2014 Rise Set
Actual Time 6:05 AM +07 5:34 PM +07
Civil Twilight 5:43 AM +07 5:56 PM +07
Nautical Twilight 5:17 AM +07 6:22 PM +07
Astronomical Twilight 4:51 AM +07 6:48 PM +07
Moon 3:54 AM +07 (11/20) 3:56 PM +07 (11/20)
Length of Visible Light 12h 13m
Length of Day
11h 28m
Waning Crescent, 6% of the Moon is Illuminated
Nov 20
Waning Crescent
Nov 22
New
Nov 29
First Quarter
Dec 6
Full
Dec 14
Last Quarter

Hourly Weather History & Observations

Time (+07) Temp. Heat Index Dew Point Humidity Pressure Visibility Wind Dir Wind Speed Gust Speed Precip Events Conditions
12:00 AM 77.0 °F - 73.4 °F 89% 29.86 in 5.6 mi NE 6.9 mph - N/A   Scattered Clouds
12:30 AM 75.2 °F - 69.8 °F 83% 29.86 in 5.6 mi NNE 5.8 mph - N/A   Scattered Clouds
1:00 AM 75.2 °F - 68.0 °F 78% 29.86 in 5.6 mi NNE 4.6 mph - N/A   Scattered Clouds
7:00 AM 71.6 °F - 68.0 °F 88% 29.89 in 5.6 mi North 4.6 mph - N/A   Scattered Clouds
7:30 AM 73.4 °F - 68.0 °F 83% 29.89 in 5.6 mi North 3.5 mph - N/A   Scattered Clouds
8:00 AM 75.2 °F - 68.0 °F 78% 29.92 in 5.6 mi NNW 2.3 mph - N/A   Scattered Clouds
9:00 AM 77.0 °F - 68.0 °F 74% 29.92 in 5.6 mi North 4.6 mph - N/A   Scattered Clouds
9:30 AM 77.0 °F - 68.0 °F 74% 29.92 in 5.6 mi North 5.8 mph - N/A   Partly Cloudy
10:30 AM 80.6 °F 83.2 °F 68.0 °F 65% 29.92 in 5.6 mi Variable 3.5 mph - N/A   Partly Cloudy
11:30 AM 84.2 °F 87.3 °F 68.0 °F 58% 29.89 in 6.2 mi Variable 3.5 mph - N/A   Scattered Clouds
12:00 PM 84.2 °F 87.3 °F 68.0 °F 58% 29.89 in 6.2 mi Variable 3.5 mph - N/A   Scattered Clouds
12:30 PM 86.0 °F 90.4 °F 69.8 °F 58% 29.86 in 6.2 mi Variable 3.5 mph - N/A   Scattered Clouds
1:00 PM 84.2 °F 87.3 °F 68.0 °F 58% 29.83 in 6.2 mi Variable 2.3 mph - N/A   Scattered Clouds
1:30 PM 84.2 °F 87.3 °F 68.0 °F 58% 29.83 in 6.2 mi Variable 3.5 mph - N/A   Scattered Clouds
2:00 PM 87.8 °F 91.4 °F 68.0 °F 52% 29.80 in 6.2 mi Variable 2.3 mph - N/A   Scattered Clouds
2:30 PM 87.8 °F 91.4 °F 68.0 °F 52% 29.80 in 6.2 mi NW 4.6 mph - N/A   Scattered Clouds
3:00 PM 86.0 °F 89.4 °F 68.0 °F 55% 29.80 in 6.2 mi WNW 4.6 mph - N/A   Scattered Clouds
3:30 PM 86.0 °F 89.4 °F 68.0 °F 55% 29.77 in 6.2 mi Variable 2.3 mph - N/A   Scattered Clouds
4:00 PM 86.0 °F 90.4 °F 69.8 °F 58% 29.80 in 6.2 mi WNW 4.6 mph - N/A   Scattered Clouds
4:30 PM 86.0 °F 90.4 °F 69.8 °F 58% 29.77 in 5.6 mi NW 5.8 mph - N/A   Partly Cloudy
5:00 PM 86.0 °F 90.4 °F 69.8 °F 58% 29.80 in 5.6 mi NW 4.6 mph - N/A   Partly Cloudy
5:30 PM 84.2 °F 88.4 °F 69.8 °F 62% 29.80 in 5.6 mi Variable 1.2 mph - N/A   Partly Cloudy
6:00 PM 84.2 °F 89.6 °F 71.6 °F 66% 29.80 in 5.6 mi Variable 2.3 mph - N/A   Scattered Clouds
6:30 PM 82.4 °F 88.2 °F 73.4 °F 74% 29.83 in 5.6 mi West 2.3 mph - N/A   Scattered Clouds
7:00 PM 82.4 °F 88.2 °F 73.4 °F 74% 29.83 in 5.6 mi NW 2.3 mph - N/A   Scattered Clouds
7:30 PM 80.6 °F 85.4 °F 73.4 °F 79% 29.86 in 5.6 mi Variable 2.3 mph - N/A   Scattered Clouds
8:00 PM 80.6 °F 85.4 °F 73.4 °F 79% 29.86 in 5.6 mi West 3.5 mph - N/A   Scattered Clouds
8:30 PM 80.6 °F 85.4 °F 73.4 °F 79% 29.89 in 5.6 mi WSW 2.3 mph - N/A   Scattered Clouds
9:00 PM 80.6 °F 85.4 °F 73.4 °F 79% 29.89 in 5.6 mi NNW 2.3 mph - N/A   Scattered Clouds
9:30 PM 80.6 °F 85.4 °F 73.4 °F 79% 29.89 in 5.6 mi NNW 2.3 mph - N/A   Scattered Clouds
10:00 PM 80.6 °F 86.2 °F 75.2 °F 84% 29.89 in 5.6 mi WNW 2.3 mph - N/A   Scattered Clouds
10:30 PM 78.8 °F - 75.2 °F 89% 29.89 in 5.6 mi NW 2.3 mph - N/A   Scattered Clouds
11:00 PM 78.8 °F - 75.2 °F 89% 29.89 in 5.6 mi NW 3.5 mph - N/A   Scattered Clouds
11:30 PM 78.8 °F - 75.2 °F 89% 29.86 in 5.6 mi NW 3.5 mph - N/A   Scattered Clouds